Home   Weather   Warsaw   Past weeks

Flag for Poland Past Weather in Warsaw, Poland — Yesterday and Last 2 Weeks

Now
34 °F

Drizzle. Fog.


Feels Like: 27 °F
Forecast: 34 / 36 °F
Wind: 8 mph from West

Location: Warsaw Okecie Airport

Current Time: Jan 20, 2017 at 11:37:22 pm

Latest Report: Jan 20, 2017 at 11:00 pm


Visibility: 2 mi

Pressure: 30.39 "Hg

Humidity: 93%

Dew Point: 32 °F

Location of WarsawLocation

Past Weather in Warsaw — Graph

°F

Warsaw Temperature Yesterday

Maximum temperature yesterday: 25 °F (at 7:30 pm)
Minimum temperature yesterday: 19 °F (at 5:00 am)
Average temperature yesterday: 22 °F

High & Low Weather Summary for the Past Weeks

 TemperatureHumidityPressure
High36 °F (Jan 12, 10:30 am)100% (Jan 12, 7:00 am)30.74 "Hg (Jan 12, 7:00 am)
Low-4 °F (Jan 7, 8:00 am)54% (Jan 11, 2:30 pm)29.30 "Hg (Jan 13, 1:00 pm)
Average22 °F84%30.17 "Hg
* Reported Jan 5 10:00 pm — Jan 20 10:30 pm, Warsaw, Weather by CustomWeather, © 2017

Note: Actual official high and low records may vary slightly from our data, if they occured in-between our weather recording intervals... More about our weather records

Advertising

Warsaw Weather History for the Previous 24 Hours

Scroll right to see more
 ConditionsComfort  
Time TempWeatherWind HumidityBarometerVisibility
10:30 pm
Fri, Jan 20
34 °FDrizzle. Fog.9 mph93%30.39 "Hg2 mi
10:00 pm34 °FDrizzle. Fog.8 mph93%30.39 "Hg2 mi
9:30 pm34 °FLight freezing rain. Fog.8 mph93%30.39 "Hg2 mi
9:00 pm32 °FLight freezing rain. Ice fog.7 mph100%30.39 "Hg2 mi
8:30 pm32 °FLight freezing rain. Ice fog.7 mph100%30.39 "Hg3 mi
8:00 pm32 °FLight freezing rain. Ice fog.8 mph100%30.39 "Hg3 mi
7:30 pm32 °FDrizzle. Ice fog.9 mph100%30.39 "Hg2 mi
7:00 pm32 °FDrizzle. Ice fog.8 mph100%30.39 "Hg2 mi
6:30 pm32 °FDrizzle. Ice fog.8 mph100%30.39 "Hg2 mi
6:00 pm32 °FDrizzle. Ice fog.10 mph100%30.42 "Hg2 mi
5:30 pm32 °FDrizzle. Ice fog.9 mph100%30.42 "Hg2 mi
5:00 pm32 °FDrizzle. Ice fog.8 mph100%30.42 "Hg2 mi
4:30 pm32 °FDrizzle. Ice fog.8 mph100%30.42 "Hg1 mi
4:00 pm32 °FDrizzle. Ice fog.9 mph100%30.42 "Hg1 mi
3:30 pm32 °FDrizzle. Ice fog.7 mph100%30.42 "Hg1 mi
3:00 pm32 °FChilly.7 mph100%30.42 "Hg1 mi
2:30 pm32 °FChilly.7 mph93%30.45 "Hg1 mi
2:00 pm32 °FChilly.8 mph93%30.45 "Hg1 mi
1:30 pm30 °FLight freezing rain. Ice fog.7 mph100%30.45 "Hg1 mi
1:00 pm30 °FChilly.8 mph100%30.45 "Hg1 mi
12:30 pm30 °FChilly.7 mph93%30.45 "Hg1 mi
12:00 pm30 °FLight freezing rain. Ice fog.9 mph93%30.48 "Hg1 mi
11:30 am30 °FLight freezing rain. Ice fog.8 mph93%30.48 "Hg1 mi
11:00 am30 °FLight freezing rain. Ice fog.7 mph93%30.48 "Hg1 mi
10:30 am28 °FLight freezing rain. Ice fog.7 mph100%30.48 "Hg1 mi
10:00 am28 °FSleet. Ice fog.7 mph93%30.48 "Hg1 mi
9:30 am28 °FChilly.7 mph93%30.48 "Hg1 mi
9:00 am28 °FChilly.7 mph93%30.48 "Hg1 mi
8:30 am27 °FChilly.7 mph100%30.48 "Hg1 mi
8:00 am27 °FLight freezing rain. Ice fog.8 mph100%30.48 "Hg1 mi
7:30 am27 °FLight freezing rain. Ice fog.8 mph100%30.48 "Hg1 mi
7:00 am27 °FLight freezing rain. Ice fog.7 mph100%30.48 "Hg1 mi
6:30 am27 °FLight freezing rain. Ice fog.7 mph59%30.48 "Hg2 mi
6:00 am27 °FLight freezing rain. Ice fog.9 mph93%30.48 "Hg2 mi
5:30 am27 °FLight freezing rain. Ice fog.8 mph93%30.48 "Hg2 mi
5:00 am27 °FLight freezing rain. Ice fog.7 mph93%30.48 "Hg1 mi
4:30 am27 °FLight freezing rain. Ice fog.7 mph93%30.48 "Hg2 mi
4:00 am27 °FIce fog.6 mph93%30.48 "Hg2 mi
3:30 am25 °FIce fog.7 mph100%30.48 "Hg2 mi
3:00 am25 °FLight freezing rain. Ice fog.6 mph93%30.48 "Hg2 mi
2:30 am25 °FLight freezing rain. Ice fog.6 mph93%30.51 "Hg2 mi
2:00 am25 °FIce fog.6 mph93%30.51 "Hg2 mi
1:30 am25 °FIce fog.7 mph93%30.51 "Hg3 mi
1:00 am25 °FIce fog.7 mph93%30.51 "Hg3 mi
12:30 am25 °FIce fog.7 mph86%30.51 "Hg3 mi
12:00 am25 °FIce fog.7 mph93%30.54 "Hg3 mi
11:30 pm
Thu, Jan 19
25 °FLight freezing rain. Ice fog.8 mph93%30.54 "Hg3 mi
11:00 pm25 °FLight freezing rain. Ice fog.7 mph93%30.54 "Hg3 mi
Weather by CustomWeather, © 2017

See weather overviewHow to use our weather pages